This is the latest recevied weather packets stored in our database for station/object KA3RQR. If no packets are shown the sender has not sent any weather packets the latest 10 day(s).
| Time | Temp. | Humidity | Pressure | Rain* | Wind** | Luminosity | Snow |
|---|---|---|---|---|---|---|---|
| 1777576055 | 18.89° C | 41% | 1008.4 hPa | 0 mm | - | 128 W/m² | - |
| 1777575751 | 17.78° C | 45% | 1008.5 hPa | 0 mm | - | 88 W/m² | - |
| 1777575447 | 18.33° C | 43% | 1008.5 hPa | 0 mm | - | 77 W/m² | - |
| 1777575143 | 18.89° C | 42% | 1008.6 hPa | 0 mm | - | 101 W/m² | - |
| 1777574838 | 18.89° C | 44% | 1008.4 hPa | 0 mm | - | 152 W/m² | - |
| 1777574537 | 18.33° C | 41% | 1008.7 hPa | 0 mm | - | 104 W/m² | - |
| 1777574233 | 18.89° C | 43% | 1008.8 hPa | 0 mm | - | 73 W/m² | - |
| 1777573928 | 18.89° C | 43% | 1008.6 hPa | 0 mm | - | 292 W/m² | - |
| 1777573623 | 18.89° C | 47% | 1009 hPa | 0 mm | - | 65 W/m² | - |
| 1777573319 | 18.89° C | 44% | 1008.6 hPa | 0 mm | - | 63 W/m² | - |
| 1777573015 | 18.89° C | 43% | 1008.5 hPa | 0 mm | - | 77 W/m² | - |
| 1777572711 | 18.33° C | 46% | 1008.9 hPa | 0 mm | - | 125 W/m² | - |
| 1777572406 | 18.33° C | 48% | 1008.5 hPa | 0 mm | - | 114 W/m² | - |
| 1777572103 | 18.33° C | 47% | 1008.5 hPa | 0 mm | - | 101 W/m² | - |
| 1777571797 | 18.33° C | 46% | 1008.7 hPa | 0 mm | - | 78 W/m² | - |
| 1777571494 | 18.33° C | 45% | 1008.5 hPa | 0 mm | - | 90 W/m² | - |
| 1777571191 | 18.89° C | 46% | 1008.6 hPa | 0 mm | - | 69 W/m² | - |
| 1777570886 | 18.89° C | 46% | 1008.5 hPa | 0 mm | - | 77 W/m² | - |
| 1777570582 | 18.89° C | 46% | 1008.6 hPa | 0 mm | - | 124 W/m² | - |
| 1777570280 | 17.78° C | 47% | 1008.7 hPa | 0 mm | - | 69 W/m² | - |
| 1777569975 | 17.78° C | 50% | 1008.7 hPa | 0 mm | - | 72 W/m² | - |
| 1777569671 | 17.78° C | 48% | 1009 hPa | 0 mm | - | 85 W/m² | - |
| 1777569367 | 17.78° C | 52% | 1008.8 hPa | 0 mm | - | 154 W/m² | - |
| 1777569064 | 18.89° C | 48% | 1008.6 hPa | 0 mm | - | 150 W/m² | - |
| 1777568760 | 18.33° C | 46% | 1008.8 hPa | 0 mm | - | 115 W/m² | - |
* Rain latest hour (hover to see other rain measurements)
** Current wind speed in m/s (hover to see current wind gust speed)